Tracking 28790 objects as of 19-Apr-2024
HD Live streaming from Space Station
objects crossing your sky now

CZ-2C R/B

Track CZ-2C R/B now!
10-day predictions


NORAD ID: 43084
Int'l Code: 2017-085D
Perigee: 470.9 km
Apogee: 583.9 km
Inclination: 34.7 °
Period: 95.0 minutes
Semi major axis: 6898 km
RCS: Unknown
Launch date: December 25, 2017
Source: People's Republic of China (PRC)
Launch site: Xichang Space Center, China (XSC)

Note: This is a ROCKET BODY
Your satellite tracking list
Your tracking list is empty




NASA's NSSDC Master Catalog

Two Line Element Set (TLE):
1 43084U 17085D   24109.59468313  .00012743  00000-0  60859-3 0  9993
2 43084  34.6657 215.5046 0081912 355.2511   4.7413 15.15227982347878
Source of the keplerian elements: AFSPC